星链-5399 (STARLINK-5399 )

导读

STARLINK-5399是美国SpaceX公司星链星座中的一颗低轨互联网卫星,于2022年12月17日由猎鹰9号运载火箭发射升空,属于星链第二代批次。卫星质量约295-297千克,运行在高度约550公里的近地轨道,配备相控阵天线与氪离子霍尔推进器,支持高速卫星互联网接入,可为全球提供低延迟宽带服务,是星链计划全球星座部署的组成部分。

基本信息
目录编号:
54788
目录名称:
STARLINK-5399
国际标识:
2022-175AG
轨道中心:
EARTH
卫星名称:
星链-5399
卫星全名:
星链-5399 (STARLINK-5399 )
卫星状态:
在轨 (已飞行1278 天)
发射日期:
2022-12-17 UTC
国别 :
美国 (US)
星等 :
--
轨道信息
数据来源 国际轨道数据 AOE轨道数据
星历时间 2026-06-17T09:33:06+0800
8小时前
查看轨道信息
2026-06-13T16:00:00+0800
4天前
查看轨道信息
半长轴 6917.905km 6917.853km
偏心率 0.0001195 0.0001341
轨道倾角 53.162° 53.159°
近地点辐角 87.692° 61.947°
升交点赤经 302.779° 319.551°
平近点角 272.421° 179.261°
近地点 538.941km 538.788km
远地点 540.595km 540.644km
周期 95.438分钟 95.437分钟
每日圈数 15.088322 15.08849
详细信息
固有亮度:
5
最大亮度:
2.5
卫星平台:
Starlink v1.5
覆盖范围:
全球
运营商:
太空探索技术公司
运营商所在国:
美国
制造商(研发单位):
太空探索技术公司
制造商所在国:
美国
使用方式:
暂无
卫星简介
星链(Starlink)计划是由太空探索技术公司(SpaceX)提出的一个巨型低轨卫星互联网星座项目,计划在2019年至2024年间在太空搭建由约1.2万颗卫星组成的“星链”网络,其中1584颗将部署在地球上空550千米处的近地轨道,并从2020年开始工作。该卫星仍在工作。
2D轨道图
3D轨道图
轨道高度分析图
轨道倾角分析图
轨道综合分析图
查看轨道综合分析图